Location:  
MeteoStar

Sort by weather type Sort by elevation Sort by visibility Sort from west to east north Sort from north to south Alphabetically Sort from strongest wind speed Sort from lowest to highest pressure Sort from highest to lowest dew point temperature Sort coolest temperatures to warmest Sort warm temperatures to coolest
 Metric

Current Observations for United Kingdom sorted from warmest to coolest

Scilly; Saint MaryS06:50ZMostly Cloudy57 54121025.1E 5 57101
Jersey Airport06:50ZMostly Cloudy55 5471024.1NE 7 55275
Guernsey Airport06:50ZPartly Cloudy55 52201024.1NNE 5 55334
Alderney / Channel Island06:50ZPartly Cloudy55 5251024.1NNE 6 55232
Manston07:00ZNot Avail.54 5391024.9NW 6 52180
Valley06:50ZMostly Cloudy54 48201024.1SSW 11 513
Culdrose06:50ZMostly Cloudy54 52121025.2ENE 8 52255
Camborne07:00ZCloudy53 5291025.6S 1 53285
Aberdaron07:00ZNot Avail.52 5091025.5S 11 48311
Stornoway06:50ZLight Rain52 5041012.1SSW 23 Gusting to 35 4629
Benbecula06:50ZMostly Cloudy52 50251014.1W 18 4719
Isle Of Man / Ronaldsway Airport06:50ZClear52 45201023.1SW 13 4855
Saint Catherines Point07:00ZNot Avail.51 45251024.9NNE 11 4752
South Uist Range07:00ZClear51 4981013.9WSW 19 Gusting to 37 4532
Sule Skerry07:00ZNot Avail.51 46151012.5S 25 Gusting to 32 4452
Machrihanish07:00ZNot Avail.51 43201020.2S 5 Gusting to 15 4942
West Freugh07:00ZNot Avail.51 45201022.5S 8 4836
Cardinham07:00ZNot Avail.50 49151025.9ESE 3 50656
Milford Haven07:00ZNot Avail.50 4941025.5ESE 4 49144
Dundrennan07:00ZNot Avail.50 45201022.2SSW 13 45374
Fair Isle07:00ZNot Avail.50 43151015.0SSW 19 Gusting to 26 44187
Lossiemouth06:50ZNot Avail.50 39251016.1SSW 10 4642
Kinloss06:50ZPartly Cloudy50 39301016.1SSW 9 4622
Tain Range07:00ZNot Avail.50 41251015.4SSW 13 4513
Tiree06:50ZLight Rain50 482.51016.1SSW 20 4439
Inverness / Dalcross06:50ZNot Avail.50 39251016.1SW 19 Gusting to 30 4429
Wick06:50ZClear50 43201015.2SSW 12 45127
Sumburgh Cape 06:50ZPartly Cloudy50 45121015.1SSW 14 4516
Lydd Airport 06:50ZCloudy50 48101025.1N 7 479
Eglinton / Londonderr06:50ZMostly Cloudy50 4561020.1SW 13 4529
Isle Of Portland07:00ZNot Avail.49 46251025.8NE 9 45173
Langdon Bay07:00ZNot Avail.49 4931024.9NNW 11 44383
Mumbles07:00ZNot Avail.49 4641026.5NNE 6 46114
Capel Curig07:00ZNot Avail.49 4691025.0SW 16 43708
Saint Bees Head07:00ZNot Avail.49 47251023.9SW 10 45406
Altnaharra07:00ZLight Showers49 40201014.2S 5 47265
Aultbea07:00ZRain49 4741014.2S 25 Gusting to 36 4136
Baltasound07:00ZNot Avail.49 45161014.2S 14 4449
Walney Island07:00ZMist49 4851024SSE 8 4649
Castlederg07:00ZNot Avail.48 44201020.5SSW 4 47167
Prestwick Rnas07:00ZNot Avail.48 42201021.2S 9 4485
Aboyne07:00ZNot Avail.48 39251018.5WSW 10 44459
Lerwick07:00ZCloudy48 43151014.7SSW 15 42269
Scatsa / Shetland Island06:50ZClear48 45251014.1S 14 4272
Prestwick Airport06:50ZPartly Cloudy48 43251022.2S 4 4765
Glasgow Airport06:50ZCloudy48 43251021.1WSW 4 4726
Belfast / Harbour06:50ZClear48 43191021.1S 7 4516
Ballypatrick Forest07:00ZClear47 43201020.2SW 18 Gusting to 33 40511
Portglenone07:00ZNot Avail.47 44151020.7S 11 42209
Herstmonceux07:00ZNot Avail.47 45251025.0NE 3 47170
Aviemore07:00ZNot Avail.47 38251016.7SSW 6 Gusting to 23 44721
Tulloch Bridge07:00ZNot Avail.47 40101018.7WSW 10 42777
Loch Glascanoch07:00ZRain47 4371015.7SW 16 Gusting to 27 41869
Lough Fea07:00ZNot Avail.46 42201021.7ESE 2 46738
Thorney Island07:00ZNot Avail.46 43251025.5NNE 6 4313
Strathallan07:00ZNot Avail.46 42201020.5W 4 44114
Aberporth07:00ZMist46 4551025.1S 13 40436
Leuchars06:50ZNot Avail.46 41251020.1W 7 4239
Dundee / Riverside06:50ZClear46 41251020.1WNW 4 4413
Edinburgh Airport06:50ZNot Avail.46 43251020.2SW 9 41134
Kirkwall Airport06:50ZMostly Cloudy46 45121015.1S 11 4168
London City Airport06:50ZClear46 4371026.1WNW 5 4416
Cardiff-Wales Airport06:50ZClear46 450.181026.2NE 4 44219
Belfast / Aldergrove Airport06:50ZMostly Cloudy46 43191021.2SSW 7 42265
Dunkeswell Aerodrome07:00ZMist45 4541026.4SSW 2 45826
Weybourne07:00ZNot Avail.45 45201025.6SSW 6 4268
Crosby07:00ZHaze45 4371024.6SE 6 4226
Keswick07:00ZNot Avail.45 4181023.7SSE 1 45265
Aberdeen / Dyce06:50ZClear45 39251018.2S 11 39213
Southend-On-Sea 06:50ZNot Avail.45 41101025.1N 3 4549
London / Gatwick Airport06:50ZNot Avail.45 4371025.2NNW 4 43203
St Athan Royal Air Force Base06:50ZPartly Cloudy45 43121026.2NE 5 42164
Plymouth07:00ZMist45 4441026.0NNE 4 43164
Manchester Airport06:50ZCloudy45 410.621025.3N 3 45226
Glenanne07:00ZNot Avail.44 42181021.2SW 10 39528
Liscombe07:00ZNot Avail.44 N/A2.751026.6W 1 1141
Drumalbin07:00ZNot Avail.44 41181021.5SSW 13 38803
Inverbervie07:00ZNot Avail.44 40251019.5SW 19 Gusting to 26 36439
Shoreham Airport07:00ZNot Avail.44 4271025.0N 10 396
Rhyl07:00ZNot Avail.43 4181025SSW 6 39252
Carlisle07:00ZNot Avail.43 3991023.4N 4391
Norwich Weather Centre06:50ZFog43 430.061025.1N 1 4345
Leeds And Bradford06:50ZClear43 3951024.5SSW 5 40682
Blackpool Airport06:50ZClear43 4141024.1SSE 9 3832
London / Heathrow Airport06:50ZClear43 41101026.2NNW 3 4378
Luton Airport 06:50ZFog43 410.311026.4N 4 41524
Liverpool Airport 06:50ZClear43 3961025.2SSE 5 4085
Bristol / Lulsgate 06:50ZPartly Cloudy43 4361026.4E 4 41620
Chivenor07:00ZNot Avail.43 4281026.1E 6 3926
Shoeburyness07:00ZNot Avail.42 4271025.1NW 5 396
High Wicombe Hqstc07:00ZNot Avail.42 39251026.6N 2 42669
Donna Nook07:00ZNot Avail.42 42121025.9WSW 4 4026
Bingley07:00ZNot Avail.42 40101025.5SSW 7 38859
Bridlington Mrsc07:00ZNot Avail.42 41121025.1W 8 3749
Warcop Range07:00ZNot Avail.42 4071024S 3 42744
Shap07:00ZNot Avail.42 402SE 7 38816
Glen Ogle07:00ZNot Avail.42 3920SSW 26 Gusting to 39 321850
Larkhill07:00ZClear41 39121026.5N 3 41433
Little Rissington07:00ZNot Avail.41 40301026.1SSE 2 41705
Loftus Samos07:00ZNot Avail.41 39121024.5S 8 36190
Wainfleet07:00ZNot Avail.41 4171026.3W 8 369
Holbeach07:00ZFog41 4131026.5W 7 369
Cranwell06:50ZFog41 412.51026.3W 7 36219
Waddington06:50ZFog Nearby41 410.871026.3WSW 6 37223
Wattisham06:50ZClear41 4191025.3N 4 38285
Exeter Airport06:50ZClear41 390.311026.2N 2 4198
Newcastle 06:50ZClear41 37201022.3SSE 5 38265
Biggin Hill 06:50ZNot Avail.41 4171025.4W 1 41600
Lyneham07:00ZNot Avail.41 4181026.5NE 2 41475
Shobdon07:00ZNot Avail.40 400.121026.8CALM40324
Lake Vyrnwy07:00ZNot Avail.39 380.311026.1NNE 1 391181
Charterhall07:00ZNot Avail.39 36151022.2W 7 34367
Marham06:50ZFog39 390.061026.2SSE 1 3975
Northolt06:50ZClear39 3791026.2NNW 3 39124
Middle Wallop06:50ZClear39 370.251026.3NW 1 39298
Odiham06:50ZFog39 390.621026.4WNW 4 36403
Cambridge06:50ZFog39 390.061026.2N 2 3949
Boulmer06:50ZPartly Cloudy39 3781022.2S 7 3475
Shawbury06:50ZFog Nearby39 390.751025.3S 1 39249
Pembrey Sands06:50ZPartly Cloudy39 3731026.1ENE 4 369
Southampton / Weather Centre06:50ZNot Avail.39 3751026.1N 2 3929
Bournemouth Airport06:50ZFog39 3751026.1NNW 4 3636
Boscombe Down06:50ZFog39 37111026.3NW 7 34406
Staverton Private 06:50ZFog Nearby39 370.621026.2CALM3995
Kenley07:00ZFog38 3731026.4NNW 3 38557
Trawscoed07:00ZMist38 3841026.0S 1 38206
Nottingham Weather Centre07:00ZMist38 3731026.6WSW 1 38383
Fylingdales07:00ZNot Avail.38 3812SW 9 32859
Mildenhall Royal Air Force Base06:56ZFog38 380.251026.0CALM3832
Sennybridge07:00ZNot Avail.37 N/A41027.1N 2 1007
Great Dun Fell07:00ZNot Avail.37 377SW 22 Gusting to 25 262778
Spadeadam07:00ZHaze37 3621023.4WSW 4 34935
Topcliffe Royal Air Force Base 06:50ZCloudy37 372.251025.2SE 6 3291
Linton-On-Ouse06:50ZMist37 372.751025.2SSE 4 3452
Leeming07:00ZMostly Cloudy37 372.51025SSE 7 32131
Coningsby Royal Air Force Base06:50ZFog37 370.181026.1NNW 3 3722
Lakenheath Royal Air Force Base06:52ZFog37 360.121026.0CALM3732
Stansted Airport06:50ZFog Nearby37 370.621026.3NNW 5 33347
Spadeadam06:50ZMist37 3621022.9WSW 4 341066
East Midlands06:50ZFog Nearby37 371.51026.3N 2 37308
Tees-Side06:50ZMist37 371.251024.2SW 6 32121
Hawarden06:50ZClear37 3641025.1SSE 3 3732
Humberside06:50ZMist37 3711026.2SW 5 33101
Yeovilton06:50ZFog37 370.181026.2ESE 2 3775
Wittering06:50ZPatchy Fog36 340.51025.3W 7 30275
Brize Norton06:50ZFog Nearby36 3641026.3CALM36288
Benson06:50ZFog36 360.061026.3SE 1 36206
Birmingham / Airport06:50ZFog36 360.121026.3S 2 36324
Bedford07:00ZFog35 350.751027WNW 2 35278
Church Lawford07:00ZFog35 350.621026.8S 2 35351
Cairnwell07:00ZNot Avail.35 N/A25SSW 23 Gusting to 31 3061
Pershore07:00ZClear34 340.121027.0W 1 34104
Cairngorm07:00ZNot Avail.34 2925SW 44 Gusting to 64 184084
Cranfield06:50ZFog34 340.311026.5CALM34364
Farnborough06:50ZFog Nearby34 3431026.3CALM34213
Eskdalemuir07:00ZMist33 3341023.7SE 2 33793
Redesdale07:00ZNot Avail.32 3141023.5ENE 1 32692
Leconfield06:50ZClear32 320.871025.1S 1 3219


Atlantic
Tropical Watch